{"data":{"norad_id":67778,"epoch":"2026-09-20T14:06:02.509056Z","epoch_age_seconds":79301,"freshness":"FRESH","line1":"1 67778U 26030Q   26263.58752904 -.00000923  00000+0 -92124-4 0  9992","line2":"2 67778  51.9017  61.3549 0000668 114.5696 245.5336 14.79929221 34179","mean_motion":14.79929221,"eccentricity":6.68e-5,"inclination_deg":51.9017,"raan_deg":61.3549,"arg_perigee_deg":114.5696,"mean_anomaly_deg":245.5336,"bstar":-9.2124e-5,"rev_number":3417,"period_min":97.301950631597,"perigee_km":629.07944523843,"apogee_km":630.01567189545,"semimajor_km":7007.6845585669,"source":"CELESTRAK","updated_at":"2026-09-21T09:00:16.852182Z"}}